Regional Weather Roundup
Issued by NWS

Home | Current Version | Previous Version | Text Only | Print | Product List | Glossary Off
Versions: 1 2 3 4 5 6 7 8 9 10 11 12 13 14 15 16 17 18 19 20 21 22 23 24 25 26 27 28 29 30 31 32 33 34 35 36 37 38 39 40 41 42 43 44 45 46 47 48 49 50

000
ASUS43 KOAX 221710
RWRNE

WEATHER ROUNDUP FOR NEBRASKA
NATIONAL WEATHER SERVICE OMAHA NE
1100 AM CST WED FEB 22 2017

NOTES: SATELLITE DATA IS BEING USED TO AUGMENT CLOUD COVER ABOVE
       12000 FEET.
       "FAIR" INDICATES FEW OR NO CLOUDS BELOW 12,000 FEET WITH NO
       SIGNIFICANT WEATHER AND/OR OBSTRUCTIONS TO VISIBILITY.

  * THESE STATIONS DO NOT REPORT WEATHER SUCH AS RAIN...SNOW OR FOG.

NEZ001>004-019>022-054>056-221800-
NEBRASKA PANHANDLE

CITY           SKY/WX    TMP DP  RH WIND       PRES   REMARKS
SCOTTSBLUFF    PTSUNNY   50  23  34 W16G28    29.85R
ALLIANCE       SUNNY     51  24  34 NW26G36   29.82R
CHADRON        SUNNY     51  24  34 W26G36    29.82F
KIMBALL        SUNNY     51  23  33 NW28G38   29.85F
SIDNEY         SUNNY     56  17  21 NW22G31   29.83F
$$

NEZ057>060-069>072-079>082-221800-
SOUTHWEST NEBRASKA

CITY           SKY/WX    TMP DP  RH WIND       PRES   REMARKS
NORTH PLATTE   SUNNY     57  30  35 W17       29.81S
IMPERIAL       SUNNY     54  26  34 W14G21    29.84F
LEXINGTON      SUNNY     59  33  38 NW21      29.78S
MCCOOK         SUNNY     62  31  31 NW17      29.81S
OGALLALA       SUNNY     56  27  33 NW14      29.81F
$$

NEZ005>010-023>029-035>040-094-221800-
NORTH CENTRAL NEBRASKA

CITY           SKY/WX    TMP DP  RH WIND       PRES   REMARKS
VALENTINE      SUNNY     57  29  34 NW21G30   29.74R
AINSWORTH      SUNNY     56  32  41 NW22G28   29.74S
BROKEN BOW     SUNNY     62  30  29 NW25G38   29.75S
O`NEILL        SUNNY     60  33  35 W25G31    29.71R
ORD            SUNNY     63  32  31 NW17G23   29.73R
THEDFORD       SUNNY     58  29  32 NW24G30   29.77F
$$

NEZ041-046>049-061>064-073>077-083>087-221800-
SOUTH CENTRAL NEBRASKA

CITY           SKY/WX    TMP DP  RH WIND       PRES   REMARKS
GRAND ISLAND   SUNNY     64  38  38 NW21      29.74R
AURORA         SUNNY     65  36  33 NW16      29.72R
HASTINGS       SUNNY     65  35  33 NW22      29.74R
HEBRON         SUNNY     67  30  25 NW14      29.70F
HOLDREGE       SUNNY     62  33  33 NW16G23   29.76F
KEARNEY *      SUNNY     64  34  32 NW18      29.76S
YORK           SUNNY     66  36  32 NW13      29.70R
$$

NEZ011>018-030>034-042>045-221800-
NORTHEAST NEBRASKA

CITY           SKY/WX    TMP DP  RH WIND       PRES   REMARKS
NORFOLK        SUNNY     65  38  36 NW16G24   29.67R
ALBION         SUNNY     66  35  31 NW17G23   29.70S
BLAIR          SUNNY     58  35  41 W8        29.65S
FREMONT        SUNNY     61  39  44 NW9       29.66S
TEKAMAH        SUNNY     60  36  40 N6        29.64S
WAYNE          SUNNY     65  40  40 NW17G24   29.66S
$$

NEZ050>053-065>068-078-088>093-221800-
SOUTHEAST NEBRASKA

CITY           SKY/WX    TMP DP  RH WIND       PRES   REMARKS
LINCOLN        SUNNY     66  33  29 NW3       29.68S
OMAHA EPPLEY   SUNNY     61  34  36 VRB5      29.65F
BEATRICE       SUNNY     64  33  32 W10       29.69R
FALLS CITY     SUNNY     69  34  27 W18       29.68R
NEBRASKA CITY  SUNNY     62  28  27 W12       29.67S
PLATTSMOUTH    SUNNY     60  28  29 W12       29.66F
$$

NEZ044-045-051>053-067-221800-
OMAHA AREA

CITY           SKY/WX    TMP DP  RH WIND       PRES   REMARKS
OMAHA EPPLEY   SUNNY     61  34  36 VRB5      29.65F
BLAIR          SUNNY     58  35  41 W8        29.65S
FREMONT        SUNNY     61  39  44 NW9       29.66S
MILLARD        SUNNY     60  37  42 CALM      29.65S
OFFUTT AFB     SUNNY     60  35  38 W7        29.64F
PLATTSMOUTH    SUNNY     60  28  29 W12       29.66F
WAHOO          FAIR      65  35  33 N14       29.66R
$$




USA.gov is the U.S. government's official web portal to all federal, state and local government web resources and services.